{"data":{"norad_id":38042,"intl_designator":"2011-080C","name":"GLOBALSTAR M082","alt_names":[],"object_type":"PAYLOAD","status":"ACTIVE","operator":null,"country":"GLOB","launch_date":"2011-12-28","launch_site_code":"TYMSC","launch_vehicle":null,"mission":null,"orbit_class":"UNKNOWN","rcs_meters":4.6934,"size_class":null,"mass_kg":null,"dimensions":null,"purposes":["comms"],"wikipedia_slug":null,"has_3d_model":false,"image_url":null,"decayed_at":null,"tle_current":{"epoch":"2026-09-19T17:04:01.093728Z","epoch_age_seconds":83345,"freshness":"FRESH","line1":"1 38042U 11080C   26262.71112377 -.00000106  00000+0 -10050-4 0  9992","line2":"2 38042  52.0084  46.7770 0000901 112.4178 260.9345 12.62262798681530","mean_motion":12.62262798,"eccentricity":9.01e-5,"inclination_deg":52.0084,"raan_deg":46.777,"arg_perigee_deg":112.4178,"mean_anomaly_deg":260.9345,"bstar":-1.005e-5,"rev_number":68153,"period_min":114.08083976503,"perigee_km":1412.9165224344,"apogee_km":1414.3205967862,"semimajor_km":7791.7555596103,"source":"CELESTRAK","updated_at":"2026-09-20T09:00:45.039957Z"}}}